Location: Unspecified
(51.0950°N, 12.9690°E)
Time: 13:49:03
(UTC+00:00)

Daily predictions for brighter satellites

Satellite Brightness Start Highest point End
(mag) Time Altitude Azimuth Time Altitude Azimuth Time Altitude Azimuth
Cosmos 839 Rocket 4.4 16:09:47 10° NW 16:17:46 83° NE 16:24:15 10° SE
USA 215 3.8 16:12:27 10° ENE 16:18:38 43° SE 16:24:46 10° SSW
Cosmos 1844 Rocket 2.9 16:13:19 10° NNW 16:18:47 50° NE 16:24:11 10° SE
NOSS 2-3 (E) 4.0 16:16:21 10° SSW 16:20:15 46° SE 16:24:49 10° NE
Meteor 1-11 4.3 16:18:31 10° N 16:24:06 61° ENE 16:29:42 10° SSE
USA 229 DEB 4.2 16:20:22 10° S 16:26:11 38° ESE 16:32:22 10° NE
USA 229 4.2 16:20:30 10° S 16:26:17 38° ESE 16:32:27 10° NE
SL-08 R/B 4.1 16:22:42 10° N 16:27:35 58° WNW 16:32:25 10° SSW
CZ-2C R/B 3.8 16:24:18 10° S 16:30:02 67° WSW 16:35:36 10° NNW
CZ-4 R/B 2.9 16:28:57 10° ESE 16:31:44 18° ENE 16:34:33 10° NNE
SL-8 R/B 4.0 16:28:01 10° W 16:32:46 65° S 16:37:32 10° E
ATLAS 3B R/B 3.7 16:26:32 10° W 16:32:49 41° NNW 16:39:25 10° NE
Cosmos 1908 4.1 16:31:07 10° SSW 16:34:53 54° WNW 16:38:41 10° N
PAYLOAD B 4.2 16:30:28 10° SSE 16:36:00 75° ENE 16:41:36 10° NNW
PSLV R/B 3.7 16:32:51 10° SSE 16:36:49 83° ENE 16:40:42 10° NNW
Cosmos 304 Rocket 4.0 16:32:41 10° S 16:37:16 48° ESE 16:41:55 10° NE
ATLAS 5 CENTAUR R/B 2.5 16:34:19 10° WSW 16:38:09 41° NNW 16:42:36 10° NE
CZ-2D R/B 3.3 16:34:34 10° SSE 16:38:23 61° ENE 16:42:15 10° N
GENESIS II 4.5 16:37:47 10° NW 16:41:42 72° SW 16:45:37 10° SSE
Meteor 1-4 Rocket 3.1 16:38:41 10° SSE 16:41:49 33° E 16:44:58 10° NNE
Cosmos 1455 Rocket 3.3 16:37:58 10° SSW 16:42:25 80° W 16:46:55 10° N
SKYMED 2 4.4 16:38:47 10° NNE 16:42:39 30° E 16:46:29 10° SSE
Cosmos 1455 3.8 16:41:38 10° ESE 16:43:51 15° E 16:46:04 10° NE
Cosmos 1825 3.5 16:41:21 10° NNE 16:44:10 20° ENE 16:46:59 10° ESE
MOS 1-B 4.3 16:39:30 10° SSE 16:45:17 83° ENE 16:51:06 10° NNW
CORIOLIS 4.5 16:40:27 10° S 16:45:47 73° WSW 16:51:10 10° NNW
YAOGAN 1 3.6 16:42:29 10° ESE 16:45:59 25° ENE 16:49:30 10° N
CENTAUR R/B 3.9 16:39:23 10° NW 16:46:02 35° NNE 16:52:56 12° ENE
FALCON 9 DEB 4.3 16:43:52 10° SSW 16:46:16 23° SE 16:48:00 14° E
Cosmos 1939 Rocket 3.7 16:43:50 10° S 16:47:45 55° W 16:51:46 10° NNW
NOSS 3-1 (A) 3.5 16:43:25 10° SSW 16:48:33 49° ESE 16:54:35 10° NE
Cosmos 2278 Rocket 3.4 16:48:47 10° NNW 16:53:20 24° NE 16:56:41 15° E
Cosmos 1300 2.6 16:50:03 10° S 16:53:51 84° E 16:57:41 10° NNE
USA 267 3.4 16:48:13 10° ESE 16:54:47 82° SSW 17:01:22 10° WNW
Cosmos 1544 Rocket 3.6 16:52:57 10° S 16:57:25 87° ESE 17:01:54 10° N
NOSS 8 (H) 4.0 16:58:20 10° SW 17:01:31 89° SE 17:03:44 16° NE
Cosmos 1605 Rocket 4.1 16:55:22 10° S 17:01:33 60° E 17:07:50 10° NNE
COSMOS 2428 4.0 16:58:14 10° SE 17:01:57 18° E 17:03:27 16° E
deb Chang Zheng 4 3.6 16:59:22 10° SSE 17:03:35 84° WSW 17:07:51 10° NNW
SL-16 R/B 2.3 16:57:56 10° SSW 17:03:38 84° WNW 17:09:21 10° NNE
FALCON 9 DEB 4.2 17:03:14 10° SSW 17:05:41 23° SE 17:06:32 20° ESE
Cosmos 1447 Rocket 4.4 17:01:01 10° N 17:07:08 63° ENE 17:13:13 10° SSE
NOSS 2-3 (D) 3.6 17:03:49 10° SW 17:07:56 86° NW 17:12:38 11° NE
SL-08 RB Rocket 4.0 17:05:36 10° SE 17:10:00 47° ENE 17:14:27 10° N
Cosmos 332 Rocket 3.8 17:05:25 10° SSW 17:10:19 89° ESE 17:15:13 10° NNE
NOSS 3-1 (C) 3.4 17:05:02 10° SW 17:10:28 82° NW 17:17:00 10° NE
Cosmos 2322 Rocket 2.2 17:07:17 10° SSW 17:12:55 89° ESE 17:18:36 10° NNE
ARGOS 3.1 17:08:24 10° SSE 17:13:47 72° ENE 17:19:13 10° NNW
Cosmos 2219 Rocket 3.0 17:09:37 10° SSE 17:14:15 27° ESE 17:17:12 18° ENE
SWARM C 4.5 17:11:30 10° S 17:14:45 59° E 17:18:01 10° N
MOS 1-B Rocket 4.0 17:08:40 10° NNE 17:14:59 56° E 17:20:36 10° S
SWARM A 4.2 17:11:44 10° S 17:14:59 59° E 17:18:16 10° N
Cosmos 1140 Rocket 3.4 17:12:32 10° NNW 17:17:44 65° ENE 17:22:55 10° SE
H-2A R/B 2.5 17:12:54 10° S 17:18:20 72° WSW 17:23:48 10° NNW
FALCON 9 DEB 3.9 17:15:52 10° SSW 17:18:27 27° SE 17:18:50 26° SE
Cosmos 2360 Rocket 2.2 17:14:07 10° SSW 17:19:42 66° ESE 17:25:21 10° NE
NOSS 2-3 (C) 3.9 17:16:16 10° SW 17:20:25 69° NW 17:24:50 13° NE
Cosmos 1408 2.4 17:16:55 10° N 17:20:32 78° ENE 17:24:05 10° SSE
Cosmos 1602 Rocket 3.7 17:16:26 10° NNW 17:20:47 74° W 17:25:04 10° S
H-2A R/B 2.5 17:16:58 10° SSE 17:21:03 55° ENE 17:25:00 10° N
CZ-4 R/B 4.4 17:17:51 10° SSE 17:21:59 87° ENE 17:26:09 10° NNW
Cosmos 1726 Rocket 4.4 17:19:34 10° SSE 17:23:24 29° E 17:27:15 10° NNE
Cosmos 1934 Rocket 4.3 17:17:25 10° SSW 17:23:26 67° WNW 17:29:30 10° N
Cosmos 1844 4.0 17:18:16 10° NNW 17:24:03 73° WSW 17:29:45 10° SSE
Cosmos 1023 Rocket 4.4 17:21:57 10° NNW 17:27:12 78° ENE 17:32:27 10° SSE
Cosmos 407 Rocket 3.5 17:22:41 10° NNW 17:28:04 80° ENE 17:33:25 10° SSE
Iridium 4 Rocket 4.3 17:25:46 10° NNW 17:30:25 52° W 17:35:29 10° SSW
Okean O Rocket 1.9 17:26:28 10° S 17:30:47 67° WSW 17:35:10 10° NNW
COSMO-SKYMED 1 2.5 17:26:32 10° NNE 17:30:55 86° E 17:35:16 10° SSW
CZ-2C R/B 2.6 17:25:45 10° NNE 17:31:21 74° ESE 17:36:49 10° S
Cosmos 1943 Rocket 3.9 17:28:01 10° N 17:31:28 16° NNE 17:32:45 15° NE
NOSS 2-2 (D) 4.4 17:29:42 10° S 17:31:42 23° SE 17:31:42 23° SE
Cosmos 2058 3.5 17:30:27 10° N 17:34:21 35° ENE 17:34:40 35° E
IRAS Rocket 4.4 17:30:11 10° NNE 17:35:33 48° E 17:40:51 10° S
In-Cosmos 22 Rocket 4.4 17:30:50 10° NNW 17:36:08 69° W 17:41:26 10° S
Cosmos 2228 3.0 17:32:53 10° S 17:37:13 62° E 17:41:35 10° NNE
DMSP B5D2-2 4.4 17:34:34 10° NNE 17:39:31 40° E 17:44:24 10° SSE
CZ-4C R/B 2.6 17:36:43 12° NNE 17:39:49 78° ESE 17:43:01 10° S
Cosmos 220 Rocket 4.4 17:35:38 10° SW 17:40:01 64° WNW 17:44:23 10° NNE
Cosmos 2333 Rocket 2.3 17:35:20 10° S 17:40:47 50° ESE 17:44:43 19° NE
NOSS 2-2 (E) 3.6 17:37:45 10° SSW 17:40:32 37° SE 17:40:32 37° SE
CZ-4B R/B 4.1 17:35:30 10° S 17:41:01 52° W 17:46:33 10° NNW
Cosmos 676 Rocket 4.2 17:36:15 10° NNW 17:41:22 50° ENE 17:43:36 31° ESE
Meteor 2-10 Rocket 3.7 17:35:58 10° SSW 17:41:25 77° WNW 17:46:41 10° N
Cosmos 1954 Rocket 4.1 17:36:40 10° NNW 17:41:50 53° ENE 17:44:15 30° ESE
Cosmos 1825 Rocket 3.4 17:37:44 10° N 17:42:05 81° ENE 17:46:25 10° SSE
Cosmos 1263 4.5 17:39:01 10° N 17:42:38 53° ENE 17:42:38 53° ENE
CSL-04 Debris 4.4 17:41:08 24° SE 17:44:04 48° ENE 17:49:17 10° N
Cosmos 1980 Rocket 4.3 17:40:38 10° W 17:44:58 22° NW 17:49:19 10° NNE
Cosmos 1892 3.6 17:42:01 10° NNW 17:45:40 49° W 17:49:18 10° S
Cosmos 44 3.7 17:42:48 10° SW 17:48:13 72° NW 17:52:00 19° NE
CSL-04 Rocket 3.9 17:48:04 29° SE 17:50:37 50° ENE 17:55:59 10° N
Cosmos 1758 Rocket 4.2 17:46:41 10° NNW 17:50:56 55° W 17:55:11 10° S
BREEZE-M DEB (TANK) 4.4 17:38:32 10° W 17:51:49 79° S 17:53:33 40° ESE
Landsat 5 4.0 17:49:34 10° N 17:54:01 67° WNW 17:58:30 10° SSW
FALCON 9 DEB 3.6 17:52:42 10° WSW 17:54:55 44° SW 17:54:55 44° SW
CZ-4C R/B 3.2 17:53:46 10° S 17:56:18 25° SSE 17:56:18 25° SSE
Cosmos 1953 Rocket 3.4 17:53:30 10° N 17:58:01 78° E 18:00:34 25° SSE
Cosmos 2322 3.7 17:53:56 10° SSW 17:59:33 62° ESE 18:02:40 27° NE
Okean-O 2.5 18:00:16 48° SE 18:01:20 68° ENE 18:05:45 10° N
USA 215 3.2 17:58:11 27° ENE 18:02:01 82° NNW 18:08:34 10° WSW
Cosmos 1844 Rocket 4.3 17:57:32 10° NW 18:02:29 33° WSW 18:07:24 10° S
CZ-4 R/B 1.8 18:02:13 10° S 18:06:16 63° WSW 18:10:25 10° NNW
Cosmos 2061 Rocket 4.2 18:03:23 10° SSE 18:09:24 46° E 18:15:29 10° NNE
Cosmos 2369 Rocket 4.0 18:08:29 10° N 18:11:48 16° NNE 18:11:48 16° NNE
Cosmos 1459 Rocket 3.8 18:06:50 10° S 18:12:57 74° E 18:19:03 10° NNE
SL-8 R/B 4.2 18:10:25 10° W 18:15:02 48° SSW 18:15:43 44° S
Cosmos 1190 Rocket 4.4 18:10:56 10° NNW 18:16:05 60° WSW 18:20:02 17° S
USA 229 DEB 3.9 18:10:21 10° WSW 18:16:49 64° NW 18:21:27 22° NE
USA 229 3.9 18:10:28 10° WSW 18:16:54 65° NW 18:21:32 22° NE
H-2A R/B 4.0 18:20:27 17° S 18:20:27 17° S 18:21:29 10° S
IRS-P2 Rocket 4.4 18:17:06 45° SSE 18:18:46 82° ENE 18:24:01 10° NNW
Cosmos 1455 2.9 18:15:19 10° SSW 18:19:00 52° WNW 18:22:39 10° N
Cosmos 1825 3.5 18:16:16 10° NNW 18:19:48 39° W 18:23:11 11° SSW
Cosmos 2056 Rocket 3.3 18:15:39 10° SSW 18:20:42 71° ESE 18:20:42 71° ESE
Cosmos 292 Rocket 3.6 18:17:00 10° SSW 18:21:45 77° SE 18:21:45 77° SE
YAOGAN 1 3.6 18:17:42 10° S 18:21:52 45° W 18:26:03 10° NNW
Cosmos 1816 Rocket 4.3 18:16:53 10° N 18:23:04 70° ENE 18:24:57 46° SE
ATLAS 5 CENTAUR R/B 3.7 18:20:39 10° NW 18:23:59 20° N 18:25:17 18° NNE
ATLAS 3B R/B 4.0 18:19:27 10° WNW 18:25:20 29° N 18:28:12 22° NE
Cosmos 2100 Rocket 4.0 18:21:18 10° S 18:27:39 84° W 18:34:05 10° N
Meteor 2-3 Rocket 4.5 18:23:21 10° N 18:27:16 37° NNE 18:27:16 37° NNE
Cosmos 1606 Rocket 4.4 18:28:16 10° SSW 18:32:37 51° WNW 18:36:59 10° N
Cosmos 2173 Rocket 4.0 18:26:54 10° SSW 18:33:08 81° W 18:39:32 10° N
NOSS 3-2 (C) 4.2 18:30:14 10° NW 18:37:11 54° NE 18:38:27 49° ENE
Cosmos 2278 Rocket 2.0 18:32:30 10° NNW 18:38:13 89° ENE 18:38:33 80° SE
CENTAUR R/B 3.2 18:30:29 10° NW 18:38:14 63° NE 18:40:07 52° E
NOSS 3-1 (A) 4.1 18:34:01 10° WSW 18:39:29 48° NNW 18:42:39 28° NNE
Cosmos 1802 Rocket 3.9 18:37:13 10° S 18:43:22 85° WNW 18:49:35 10° N
COSMOS 2428 2.6 18:39:46 10° SSW 18:45:28 88° WNW 18:45:33 87° NNW
SL-24 R/B - RUBIN 2 4.2 18:42:34 10° SW 18:47:58 73° SW 18:47:58 73° SW
SL-16 R/B 4.3 18:44:10 10° W 18:48:36 23° NW 18:53:04 10° NNE
Cosmos 1371 Rocket 4.4 18:47:47 10° SW 18:52:59 62° WNW 18:53:37 57° NNW
NOSS 3-2 (A) 3.9 18:47:21 10° NW 18:54:38 80° NE 18:55:43 69° ESE
SL-08 R/B 4.4 18:48:30 10° S 18:54:54 86° E 19:01:23 10° N
Cosmos 1864 Rocket 4.4 18:51:08 10° S 18:57:29 87° WNW 19:03:47 10° N
Cosmos 2322 Rocket 4.2 18:53:14 10° W 18:57:44 24° NW 19:02:16 10° NNE
Cosmos 2219 Rocket 2.6 18:52:19 10° SW 18:57:50 60° NW 18:58:59 50° N
Cosmos 1624 Rocket 4.5 18:55:52 10° SW 19:01:08 59° WNW 19:01:15 59° NW
Lacrosse 5 4.1 18:57:49 10° SSW 18:58:38 14° SSW 18:58:38 14° SSW
Cosmos 2360 Rocket 3.9 18:59:13 10° WSW 19:04:10 30° NW 19:08:11 14° NNE
USA 238 DEB 3.8 19:00:06 10° NW 19:07:10 71° NE 19:07:10 71° NE
USA 238 3.8 19:00:12 10° NW 19:07:14 70° NNE 19:07:14 70° NNE
Tsikada Rocket 4.1 19:03:39 10° NNW 19:09:49 72° W 19:09:53 72° W
Cosmos 2016 Rocket 4.3 19:09:20 10° SSW 19:15:27 61° WNW 19:21:31 10° N
Cosmos 1943 Rocket 3.5 19:11:08 10° NNW 19:14:16 31° N 19:14:16 31° N
Cosmos 1725 Rocket 4.4 19:17:28 10° SSW 19:23:54 60° WNW 19:29:46 10° N
Cosmos 2333 Rocket 3.5 19:20:01 10° WSW 19:25:16 37° NW 19:26:47 32° NNW
USA 215 3.8 19:45:32 52° NNW 19:45:32 52° NNW 19:51:07 10° W
CZ-4C R/B 4.5 19:40:58 10° WSW 19:41:33 13° WSW 19:41:33 13° WSW
Cosmos 2369 Rocket 4.3 19:51:49 10° NNW 19:53:34 20° NNW 19:53:34 20° NNW
ATLAS 3B R/B 4.1 20:11:15 10° NW 20:15:27 32° NNW 20:15:27 32° NNW
CENTAUR R/B 3.9 20:21:19 10° NW 20:27:18 45° W 20:27:18 45° W
